Notices

What's New in latest Release from April 7th, 2021:

- Updated Glossary, including Speed of Maximum Gust, and Total Hourly Precipitation

- Updated national and regional climate services offices contacts and prices information

- Addition of station inventory lists for 1981-2010, 1971-2000, and 1961-1990 Normals.

If you haven't already, please take our survey and provide feedback about our website: https://eccc.sondage-survey.ca/f/LanguageSelection.aspx?s=442ca660-fcf1-47c0-95a9-59707d6fd709

Hourly Data Report for July 29, 2003

TORONTO CITY
ONTARIO

43°40'00.000" N
79°24'00.000" W
112.50 m
6158355
71508
XTO

Download Data

Hourly Data (July 2003)
Hourly Data Report for July 29, 2003
TIME
LST
Temp Definition
°C
Dew Point Definition
°C
Rel Hum Definition
%
Precip. Amount Definition
mm

Wind Dir Definition
10's deg

Wind Spd Definition
km/h
Visibility Definition
km
Stn Press Definition
kPa
Hmdx Definition


Wind Chill Definition


Weather Definition


00:00 18.3 11.2 63   LegendMM LegendMM LegendMM 99.96     LegendNANA
01:00 18.0 11.2 64   LegendMM LegendMM LegendMM 99.93     LegendNANA
02:00 17.3 11.4 68   LegendMM LegendMM LegendMM 99.89     LegendNANA
03:00 17.1 11.4 69   LegendMM LegendMM LegendMM 99.91     LegendNANA
04:00 16.4 11.4 72   LegendMM LegendMM LegendMM 99.94     LegendNANA
05:00 16.1 11.6 75   LegendMM LegendMM LegendMM 99.98     LegendNANA
06:00 15.5 12.1 80   LegendMM LegendMM LegendMM 100.02     LegendNANA
07:00 18.1 12.5 70   LegendMM LegendMM LegendMM 100.05     LegendNANA
08:00 20.7 12.4 59   LegendMM LegendMM LegendMM 100.08     LegendNANA
09:00 22.7 13.5 56   LegendMM LegendMM LegendMM 100.10 26   LegendNANA
10:00 24.7 14.0 51   LegendMM LegendMM LegendMM 100.12 28   LegendNANA
11:00 25.3 14.1 50   LegendMM LegendMM LegendMM 100.14 29   LegendNANA
12:00 24.3 13.8 52   LegendMM LegendMM LegendMM 100.13 28   LegendNANA
13:00 26.0 14.4 49   LegendMM LegendMM LegendMM 100.10 30   LegendNANA
14:00 25.2 12.4 45   LegendMM LegendMM LegendMM 100.09 28   LegendNANA
15:00 26.3 12.9 43   LegendMM LegendMM LegendMM 100.06 29   LegendNANA
16:00 24.2 13.3 51   LegendMM LegendMM LegendMM 100.06 27   LegendNANA
17:00 23.5 12.8 51   LegendMM LegendMM LegendMM 100.06 26   LegendNANA
18:00 22.9 12.9 53   LegendMM LegendMM LegendMM 100.09 26   LegendNANA
19:00 23.2 13.6 55   LegendMM LegendMM LegendMM 100.10 26   LegendNANA
20:00 21.4 13.5 61   LegendMM LegendMM LegendMM 100.14     LegendNANA
21:00 22.6 13.8 58   LegendMM LegendMM LegendMM 100.21 26   LegendNANA
22:00 21.2 14.0 63   LegendMM LegendMM LegendMM 100.23 25   LegendNANA
23:00 19.8 14.4 71   LegendMM LegendMM LegendMM 100.25     LegendNANA

Notes on Data Quality.

Legend

  • E = Estimated
  • M = Missing
  • NA = Not Available*
  • [empty] = Indicates an unobserved value
Date modified: